Location: Brno
(49.2000°N, 16.6330°E)
Time: 10:24:32
(UTC+02:00)

RESURS DK-1 - Visible Passes

Search period start: 02 October 2014 00:00
Search period end: 12 October 2014 00:00
Orbit: 563 x 566 km, 69.9° (Epoch: 02 October)

Date Brightness Start Highest point End Pass type
(mag) Time Alt. Az. Time Alt. Az. Time Alt. Az.
04 Oct 6.2 05:50:53 10° ESE 05:51:16 10° E 05:51:38 10° E visible
05 Oct 5.6 05:48:49 10° SE 05:50:59 14° ESE 05:53:09 10° ENE visible
06 Oct 5.3 05:47:49 10° SSE 05:50:44 19° ESE 05:53:39 10° ENE visible
07 Oct 4.8 05:47:06 10° SSE 05:50:30 25° ESE 05:53:55 10° NE visible
08 Oct 4.2 05:46:34 10° S 05:50:17 33° ESE 05:54:03 10° NE visible
09 Oct 3.5 05:46:09 10° S 05:50:06 45° ESE 05:54:05 10° NE visible
10 Oct 2.9 05:45:52 10° SSW 05:49:57 62° ESE 05:54:04 10° NE visible
11 Oct 2.4 05:45:40 10° SSW 05:49:49 84° ESE 05:53:59 10° NNE visible
